This is the latest recevied weather packets stored in our database for station/object WX5KDM. If no packets are shown the sender has not sent any weather packets the latest 10 day(s).
| Time | Temp. | Humidity | Pressure | Rain* | Wind** | Luminosity | Snow |
|---|---|---|---|---|---|---|---|
| 1777867358 | 12.22° C | 89% | 1017.6 hPa | 0 mm | - | - | - |
| 1777867054 | 12.22° C | 88% | 1017.8 hPa | 0 mm | - | - | - |
| 1777866751 | 11.67° C | 85% | 1018 hPa | 0 mm | - | - | - |
| 1777866449 | 12.22° C | 85% | 1017.9 hPa | 0 mm | - | - | - |
| 1777866146 | 12.22° C | 86% | 1018 hPa | 0 mm | - | - | - |
| 1777865844 | 12.22° C | 85% | 1017.9 hPa | 0 mm | - | - | - |
| 1777865540 | 12.22° C | 83% | 1018 hPa | 0 mm | - | - | - |
| 1777865237 | 12.78° C | 83% | 1018 hPa | 0 mm | - | - | - |
| 1777864935 | 12.78° C | 82% | 1018.2 hPa | 0 mm | - | - | - |
| 1777864631 | 12.78° C | 82% | 1018 hPa | 0 mm | - | - | - |
| 1777864328 | 12.78° C | 82% | 1018.2 hPa | 0 mm | - | - | - |
| 1777864024 | 12.78° C | 81% | 1017.9 hPa | 0 mm | - | - | - |
| 1777863721 | 13.33° C | 80% | 1018 hPa | 0 mm | - | - | - |
| 1777863417 | 13.33° C | 79% | 1018.2 hPa | 0 mm | - | - | - |
| 1777863114 | 13.33° C | 79% | 1017.8 hPa | 0 mm | - | - | - |
| 1777862812 | 13.89° C | 78% | 1017.8 hPa | 0 mm | - | - | - |
| 1777862508 | 13.89° C | 77% | 1017.8 hPa | 0 mm | - | - | - |
| 1777862205 | 14.44° C | 76% | 1017.7 hPa | 0 mm | - | - | - |
| 1777861901 | 15° C | 74% | 1017.7 hPa | 0 mm | - | - | - |
| 1777861597 | 15.56° C | 70% | 1017.5 hPa | 0 mm | - | - | - |
| 1777861293 | 15° C | 66% | 1017.6 hPa | 0 mm | - | - | - |
| 1777860992 | 15° C | 73% | 1017.6 hPa | 0 mm | - | - | - |
| 1777860687 | 15° C | 68% | 1017.6 hPa | 0 mm | - | - | - |
| 1777860385 | 15° C | 67% | 1017.5 hPa | 0 mm | - | - | - |
| 1777860081 | 15.56° C | 66% | 1017.6 hPa | 0 mm | - | - | - |
* Rain latest hour (hover to see other rain measurements)
** Current wind speed in m/s (hover to see current wind gust speed)